CAPE
0 0 0 0 0 0 0 0 0 0 0 0 0 0 0 0 0 0 0 0 0 0 0 0 0 0 8 384 587 608 572 548 519 582 640 653 658 642 628 603 578 595 654 690 724 762 790 819 848 860 865 930 978 986 956 840 681 610 696 811 799 844 832 859 881 885 829 745 632 179 119 194 294 528 524 635 670 851 885 1119 1430 1553 1599 1665 1840 1982
0 0 0 0 0 0 0 0 0 0 0 0 0 0 0 0 0 0 0 0 0 0 0 0 0 0 0 256 505 571 546 513 486 510 579 624 632 636 623 617 589 586 600 642 708 741 768 794 815 827 864 898 935 969 968 918 836 659 682 746 766 787 768 790 820 852 840 739 626 417 280 211 227 416 662 621 715 858 1074 1274 1442 1594 1603 1665 1676 2079
0 0 0 0 0 0 0 0 0 0 0 0 0 0 0 0 0 0 0 0 0 0 0 0 0 0 0 46 484 544 536 526 486 466 504 552 598 619 614 623 584 548 570 585 637 680 735 768 789 808 828 866 905 946 958 946 872 798 708 714 735 752 737 732 771 806 842 773 686 493 365 275 232 320 552 598 781 1023 1167 1367 1482 1584 1572 1616 1649 1785
0 0 0 0 0 0 0 0 0 0 0 0 0 0 0 0 0 0 0 0 0 0 0 0 0 0 0 2 396 527 540 528 494 459 452 468 502 550 588 609 597 536 525 588 602 625 667 727 763 774 799 843 878 913 923 913 888 802 691 686 722 744 726 708 733 980 812 816 736 660 488 404 450 719 971 1014 930 940 1167 1390 1525 1573 1551 1423 1620 1609
0 0 0 0 0 0 0 0 0 0 0 0 0 0 0 0 0 0 0 0 0 0 0 0 0 0 0 0 78 434 532 450 442 466 429 359 378 466 510 414 542 506 472 532 592 616 648 684 726 762 793 809 842 864 880 886 856 771 626 667 718 741 732 694 850 948 843 984 803 742 642 630 720 1038 1130 1103 1087 1053 1164 1371 1468 1609 1627 1483 1621 1635
0 0 0 0 0 0 0 0 0 0 0 0 0 0 0 0 0 0 0 0 0 0 0 0 0 0 0 0 0 98 333 388 499 486 451 434 318 269 464 463 482 454 421 438 509 554 581 616 698 754 794 814 838 849 852 845 816 757 654 632 676 721 723 709 701 858 886 954 860 817 779 759 737 794 1060 1163 1190 1170 1171 1353 1374 1586 1721 1643 1634 1690
0 0 0 0 0 0 0 0 0 0 0 0 0 0 0 0 0 0 0 0 0 0 0 0 0 0 0 0 0 0 180 380 320 464 497 467 456 420 412 452 447 432 389 366 454 490 518 574 644 719 788 821 840 856 852 830 815 770 720 650 626 690 720 733 707 751 1015 865 888 857 824 792 744 750 870 1112 1232 1267 1267 1214 1363 1582 1734 1758 1713 1767
0 0 0 0 0 0 0 0 0 0 0 0 0 0 0 0 0 0 0 0 0 0 0 0 0 0 0 0 0 0 12 196 274 270 316 484 470 482 368 446 436 407 255 338 399 482 510 567 634 689 757 810 842 865 858 842 817 788 748 716 658 648 840 744 746 730 928 851 904 908 890 903 806 758 782 915 1152 1301 1369 1348 1322 1535 1741 1820 1780 1805
0 0 0 0 0 0 0 0 0 0 0 0 0 0 0 0 0 0 0 0 0 0 0 0 0 0 0 0 0 0 0 0 128 257 376 450 479 475 498 472 459 415 280 290 346 439 506 537 621 686 734 788 821 846 864 854 850 830 820 784 743 676 823 758 783 773 808 938 873 926 934 942 973 878 806 853 909 1169 1318 1376 1284 1484 1658 1805 1835 1814
0 0 0 0 0 0 0 0 0 0 0 0 0 0 0 0 0 0 0 0 0 0 0 0 0 0 0 0 0 0 0 0 4 123 194 357 438 464 486 495 462 372 266 278 341 380 472 523 556 632 714 766 816 868 900 902 905 898 876 850 787 739 762 774 772 869 783 844 980 867 920 932 977 942 928 837 904 1064 1226 1334 1393 1412 1577 1754 1844 1858
0 0 0 0 0 0 0 0 0 0 0 0 0 0 0 0 0 0 0 0 0 0 0 0 0 0 0 0 0 0 0 0 0 0 37 96 197 421 448 458 471 427 411 362 290 378 424 492 537 571 620 712 786 841 895 945 964 953 941 888 847 803 805 928 811 845 823 808 897 833 863 899 921 939 948 909 872 994 1148 1300 1418 1489 1534 1672 1826 1858
0 0 0 0 0 0 0 0 0 0 0 0 0 0 0 0 0 0 0 0 0 0 0 0 0 0 0 0 0 0 0 0 0 0 0 8 50 144 406 428 437 426 382 377 260 332 386 444 510 561 602 646 712 765 837 922 972 990 977 945 917 873 928 1014 886 861 852 844 854 834 811 837 851 882 914 904 874 968 1076 1208 1360 1446 1499 1637 1744 1788
0 0 0 0 0 0 0 0 0 0 0 0 0 0 0 0 0 0 0 0 0 0 0 0 0 0 0 0 0 0 0 0 0 0 0 0 8 48 142 390 420 424 412 360 239 240 376 415 481 540 593 633 689 728 777 847 942 996 1000 996 979 940 981 1118 1023 938 905 882 884 855 808 786 806 838 901 936 919 969 1039 1121 1206 1267 1450 1568 1702 1744
0 0 0 0 0 0 0 0 0 0 0 0 0 0 0 0 0 0 0 0 0 0 0 0 0 0 0 0 0 0 0 0 0 0 0 0 2 11 56 249 356 394 400 383 349 260 235 270 442 513 575 619 665 723 746 792 872 971 1017 1028 1008 1003 982 1123 1134 1068 1014 958 947 932 874 798 905 846 889 965 988 1011 1045 1084 1132 1162 1322 1511 1691 1778
0 0 0 0 0 0 0 0 0 0 0 0 0 0 0 0 0 0 0 0 0 0 0 0 0 0 0 0 0 0 0 0 0 0 0 0 0 0 11 82 199 311 372 378 368 356 354 284 406 461 537 598 645 689 730 774 820 899 985 1040 1041 1036 1031 1095 1188 1182 1140 1103 1058 1042 989 901 836 865 885 960 1003 1026 1052 1074 1107 1131 1139 1373 1569 1696
0 0 0 0 0 0 0 0 0 0 0 0 0 0 0 0 0 0 0 0 0 0 0 0 0 0 0 0 0 0 0 0 0 0 0 0 0 0 0 4 16 156 296 374 383 382 363 395 400 430 486 556 616 656 701 739 773 827 918 1001 1050 1060 1055 1057 1168 1230 1241 1214 1177 1142 1103 1028 908 1032 903 938 990 1012 1025 1067 1082 1102 1103 1158 1372 1544
0 0 0 0 0 0 0 0 0 0 0 0 0 0 0 0 0 0 0 0 0 0 0 0 0 0 0 0 0 0 0 0 0 0 0 0 0 0 0 2 9 34 171 297 374 399 387 383 403 408 460 528 570 614 674 718 751 803 866 937 1014 1059 1058 1047 1108 1208 1264 1288 1260 1218 1161 1081 949 954 948 942 979 998 1021 1028 1046 1056 1071 1066 1132 1356
0 0 0 0 0 0 0 0 0 0 0 0 0 0 0 0 0 0 0 0 0 0 0 0 0 0 0 0 0 0 0 0 0 0 0 0 0 0 0 2 6 27 63 190 298 368 392 406 408 418 427 479 542 589 636 680 730 781 836 883 948 1008 1038 1035 1056 1147 1220 1273 1284 1288 1252 1188 1062 995 985 976 976 973 986 990 997 989 976 987 952 1225
0 0 0 0 0 0 0 0 0 0 0 0 0 0 0 0 0 0 0 0 0 0 0 0 0 0 0 0 0 0 0 0 0 0 0 0 0 0 0 3 9 32 58 78 127 289 352 391 414 424 448 438 476 547 588 631 676 740 806 830 879 938 975 1008 1027 1102 1171 1223 1262 1272 1266 1230 1168 1108 1072 1035 989 956 953 979 989 978 960 922 869 1208
0 0 0 0 0 0 0 0 0 0 0 0 0 0 0 0 0 0 0 0 0 0 0 0 0 0 0 0 0 0 0 0 0 0 0 0 0 0 0 3 9 28 57 78 115 176 278 374 402 438 451 436 440 497 560 605 648 688 777 821 846 876 914 954 997 1147 1143 1174 1206 1219 1204 1191 1176 1158 1107 1029 978 944 954 984 993 982 958 936 852 1009
0 0 0 0 0 0 0 0 0 0 0 0 0 0 0 0 0 0 0 0 0 0 0 0 0 0 0 0 0 0 0 0 0 0 0 0 0 0 0 5 21 38 64 92 136 196 294 364 394 413 436 442 420 436 527 597 640 661 755 810 846 864 893 925 960 1023 1100 1137 1174 1191 1192 1171 1159 1145 1091 1036 1001 993 1002 1011 1006 984 968 921 867 937
0 0 0 0 0 0 0 0 0 0 0 0 0 0 0 0 0 0 0 0 0 0 0 0 0 0 0 0 0 0 0 0 0 0 0 0 0 0 0 4 26 47 58 102 152 218 282 338 411 422 422 444 435 428 467 534 592 645 749 801 843 852 890 921 952 992 1073 1122 1164 1198 1206 1182 1172 1166 1139 1100 1084 1070 1050 1020 997 984 970 936 892 976
0 0 0 0 0 0 0 0 0 0 0 0 0 0 0 0 0 0 0 0 0 0 0 0 0 0 0 0 0 0 0 0 0 0 0 0 0 0 0 2 22 46 82 85 156 224 301 408 443 444 458 473 496 486 410 486 546 621 716 783 848 882 910 932 962 978 1044 1106 1154 1198 1212 1201 1187 1184 1172 1144 1116 1100 1077 1048 1021 996 976 963 930 1115
0 0 0 0 0 0 0 0 0 0 0 0 0 0 0 0 0 0 0 0 0 0 0 0 0 0 0 0 0 0 0 0 0 0 0 0 0 0 0 0 1 17 76 122 188 276 362 439 467 483 513 521 520 390 376 516 543 548 683 764 832 878 915 941 972 998 1029 1082 1130 1176 1205 1214 1209 1190 1197 1175 1138 1120 1102 1060 1041 1023 1116 1037 986 1112
0 0 0 0 0 0 0 0 0 0 0 0 0 0 0 0 0 0 0 0 0 0 0 0 0 0 0 0 0 0 0 0 0 0 0 0 0 0 0 0 0 4 23 87 161 247 342 436 506 568 595 609 608 593 562 564 589 604 622 738 815 866 898 936 970 1016 1042 1072 1109 1145 1188 1214 1210 1207 1193 1172 1159 1154 1110 1076 1042 1021 1022 1190 1210 1155
0 0 0 0 0 0 0 0 0 0 0 0 0 0 0 0 0 0 0 0 0 0 0 0 0 0 0 0 0 0 0 0 0 0 0 0 0 0 0 0 0 0 6 29 71 216 277 401 558 626 666 684 682 657 636 643 646 666 674 726 786 843 890 930 962 1010 1034 1059 1096 1132 1167 1200 1210 1208 1190 1173 1172 1158 1134 1100 1054 1016 996 1102 1257 1309
0 0 0 0 0 0 0 0 0 0 0 0 0 0 0 0 0 0 0 0 0 0 0 0 0 0 0 0 0 0 0 0 0 0 0 0 0 0 0 0 0 0 0 8 52 127 271 385 582 667 729 754 755 726 713 702 724 734 736 718 769 842 888 916 954 989 1026 1048 1069 1099 1127 1162 1193 1180 1160 1154 1156 1147 1137 1116 1074 1042 996 1122 1170 1266
1 0 0 0 0 0 0 0 0 0 0 0 0 0 0 0 0 0 0 0 0 0 0 0 0 0 0 0 0 0 0 0 0 0 0 0 0 0 0 0 28 0 0 1 40 108 252 390 574 679 764 798 798 794 776 779 798 797 789 772 784 838 895 924 950 980 1016 1054 1070 1091 1100 1120 1129 1132 1122 1113 1120 1127 1122 1097 1071 1038 994 1143 1198 1242
0 2 0 0 0 0 0 0 0 0 0 0 0 0 0 0 0 0 0 0 0 0 0 0 0 0 0 0 0 0 0 0 0 0 0 0 0 0 0 0 0 0 0 0 15 120 268 358 462 668 782 832 838 841 849 872 850 855 826 802 850 853 926 962 966 998 1037 1078 1108 1112 1099 1084 1091 1104 1094 1092 1105 1106 1102 1077 1050 1037 1126 1198 1239 1286
0 0 2 0 0 0 0 0 0 0 0 0 0 0 0 0 0 0 0 0 0 0 0 0 0 0 0 0 0 0 0 0 0 0 0 0 0 0 0 0 0 0 0 2 34 131 271 395 550 654 745 820 850 878 904 926 920 902 1014 1054 1016 1092 1087 1077 1043 1043 1079 1123 1181 1195 1140 1125 1116 1111 1115 1112 1120 1113 1100 1091 1085 1079 1090 1153 1244 1302
0 0 0 0 0 0 0 0 0 0 0 0 0 0 0 0 0 0 0 0 0 0 0 0 0 0 0 0 0 0 0 0 0 0 0 0 0 0 0 0 0 0 0 22 59 130 287 396 573 661 716 793 854 907 944 979 996 976 1088 1148 1218 1268 1288 1274 1271 1227 1216 1241 1258 1282 1302 1292 1204 1176 1180 1190 1164 1166 1171 1174 1180 1210 1224 1190 1192 1300
0 0 0 0 0 0 0 0 0 0 0 0 0 0 0 0 0 0 0 0 0 0 0 0 0 0 0 0 0 309 806 892 1196 1198 1258 928 0 0 0 0 0 2 14 37 72 157 286 410 604 712 774 830 876 913 969 1025 1062 1101 1228 1303 1390 1410 1470 1480 1458 1408 1399 1381 1385 1413 1431 1430 1424 1388 1298 1265 1274 1270 1270 1267 1300 1354 1378 1382 1351 1263
0 0 0 0 0 0 0 0 0 0 0 0 0 0 0 0 1 4 0 0 0 0 0 0 0 0 288 0 0 839 1315 1602 1936 1992 2041 2163 908 0 0 0 0 8 26 58 120 227 288 527 668 783 836 898 928 945 990 1062 1137 1252 1349 1473 1530 1624 1700 1697 1677 1628 1632 1599 1593 1600 1574 1574 1584 1556 1517 1394 1380 1372 1380 1406 1454 1510 1539 1560 1542 1488
0 2 0 0 0 0 0 0 0 0 0 0 0 0 0 0 0 0 4 0 0 0 0 0 4 705 1248 1200 1054 1672 1898 1884 1856 1911 2078 2132 1925 0 0 0 0 5 24 57 135 243 454 579 704 798 882 971 1006 1023 1042 1053 1176 1284 1382 1577 1713 1807 1906 1926 1924 1904 1877 1850 1832 1810 1769 1747 1726 1709 1684 1641 1529 1526 1544 1569 1632 1669 1704 1716 1721 1725
0 2 0 0 0 0 0 0 0 0 0 0 9 8 29 0 1 8 29 2 0 0 0 353 771 1109 1521 1944 2080 2117 1916 1854 1945 1938 2062 2308 2311 1305 0 0 0 0 2 29 104 310 507 636 727 822 918 1002 1055 1082 1084 1118 1132 1232 1392 1591 1823 1978 2104 2129 2153 2130 2106 2090 2066 2040 1998 1947 1897 1860 1833 1759 1708 1716 1732 1759 1801 1844 1888 1902 1921 1950
4 0 0 0 0 0 0 0 0 0 5 72 90 91 30 1 0 4 8 5 0 0 35 547 970 1444 1647 2069 2058 1794 1896 1786 1945 1921 2020 2222 2421 2510 1575 4 0 0 2 18 91 457 575 692 785 884 968 1025 1078 1128 1146 1187 1157 1188 1370 1569 1814 2010 2203 2312 2335 2326 2305 2311 2293 2268 2216 2159 2096 2046 1937 1902 1907 1914 1940 1962 1991 2042 2061 2116 2192 2255
0 2 0 0 0 0 0 0 0 0 28 88 96 64 28 7 6 0 0 12 62 7 0 354 1044 1450 1732 1794 1726 1784 1500 1747 1738 1798 2206 2247 2411 2514 2502 2290 1423 3 0 0 218 513 630 743 844 940 1044 1066 1134 1180 1210 1222 1206 1202 1310 1498 1746 1989 2179 2368 2457 2486 2518 2524 2497 2478 2425 2372 2318 2267 2139 2122 2121 2127 2130 2141 2169 2196 2280 2376 2436 2467
0 3 0 0 0 0 0 0 0 3 32 52 54 5 22 5 0 0 10 163 370 345 402 708 1104 1507 1562 1676 1632 1452 1594 1814 1808 1740 2282 2383 2404 2482 2504 2454 2368 2051 841 394 394 529 646 772 880 1070 1050 1113 1168 1218 1245 1263 1266 1424 1498 1578 1683 1888 2095 2312 2473 2568 2643 2686 2679 2686 2620 2573 2534 2481 2352 2327 2318 2252 2273 2330 2398 2472 2518 2575 2606 2616
0 1 1 0 0 0 0 0 0 8 21 26 35 22 23 10 0 0 29 158 395 497 749 910 1225 1460 1528 1596 1643 1704 1848 1878 1966 1988 2141 2471 2501 2436 2577 2580 2637 2581 2420 1690 978 828 767 909 1023 1096 1044 1118 1223 1249 1280 1389 1574 1644 1720 1796 1770 1886 2026 2206 2349 2509 2637 2742 2790 2822 2814 2656 2522 2546 2562 2601 2612 2632 2638 2678 2723 2731 2751 2804 2868 2924
6 2 0 1 8 0 0 0 10 19 128 41 49 12 0 15 4 0 169 335 518 761 936 1163 1334 1444 1504 1526 1600 1683 1768 1726 1602 2157 2338 2478 2542 2526 2631 2720 2726 2720 2708 2711 2649 2305 2208 2380 2132 1405 1173 1194 1279 1326 1554 1666 1744 1966 1914 1959 1899 1940 2047 2179 2313 2438 2577 2702 2514 2681 2759 2829 2864 2884 2884 2892 2928 2923 2936 2967 3006 3048 3078 3110 3145 3186
16 3 1 2 12 2 0 0 8 30 56 42 47 18 3 90 7 106 80 429 460 897 1018 1211 1410 1412 1420 1461 1345 1299 1337 1455 1754 2233 2494 2638 2778 2763 2731 2766 2793 2736 2727 2678 2734 2782 2607 2492 2355 2271 2130 2105 2095 1792 1767 1863 1893 2222 2352 2216 2138 2132 2166 2220 2328 2533 2689 2670 2882 3012 3036 3044 3056 3051 3059 3094 3101 3126 3151 3181 3189 3207 3226 3272 3314 3347
16 1 3 10 10 4 0 0 11 37 50 56 54 40 52 76 32 246 18 461 748 1018 1238 1237 1382 1409 1392 1366 1354 1445 1632 1810 2099 2379 2669 2780 2794 2941 3004 3022 3004 2876 2828 2846 2796 2763 2696 2737 2799 2872 2936 2914 2744 2320 2150 2101 2321 2663 2756 2485 2400 2402 2426 2503 2534 2634 2756 2882 3104 3212 3262 3275 3276 3278 3273 3287 3320 3315 3329 3307 3326 3353 3368 3409 3432 3463
9 2 1 7 8 1 4 11 9 32 26 35 58 49 99 123 16 47 385 463 657 1046 1148 1272 1376 1424 1381 1418 1465 1580 1775 1932 2162 2436 2636 2691 2881 3058 3257 3348 3371 3303 3206 3146 3112 3112 3214 3303 3344 3323 3304 3237 3030 2916 2891 2953 3076 3052 2924 2780 2861 3029 2998 2848 2716 2790 2994 3262 3432 3444 3453 3480 3530 3567 3554 3538 3512 3499 3491 3487 3492 3507 3521 3547 3568 3610
11 8 1 7 3 2 8 15 24 22 21 53 38 72 79 70 56 93 330 481 638 848 1112 1212 1330 1359 1384 1455 1615 1747 1784 1849 1942 2204 2452 2603 2700 2838 3016 3196 3318 3417 3361 3278 3254 3273 3306 3372 3456 3586 3654 3610 3277 3169 3105 3033 3091 3145 3192 3295 3484 3543 3584 3445 3380 3479 3614 3631 3646 3681 3684 3695 3722 3717 3721 3705 3694 3682 3655 3646 3614 3621 3637 3654 3700 3730
15 7 3 2 7 1 2 14 6 2 39 16 19 15 39 76 130 197 200 380 564 784 945 950 1079 1154 1260 1437 1590 1726 1665 1686 1744 1895 2234 2430 2548 2658 2750 2898 3068 3350 3398 3344 3316 3212 3156 3168 3231 3319 3450 3597 3690 3585 3494 3445 3540 3605 3703 3778 3880 3962 4104 4155 4038 3744 3848 3866 3782 3764 3792 3828 3832 3826 3794 3762 3734 3748 3742 3780 3762 3792 3770 3785 3816 3837
4 46 28 20 4 0 0 10 14 3 18 2 0 0 1 32 8 123 259 208 199 749 769 860 808 1100 1134 946 1476 1537 1592 1549 1610 1693 1975 2216 2368 2494 2562 2587 2761 2872 3156 3295 3366 3372 3258 3128 3049 3168 3333 3427 3534 3588 3693 3745 3758 3835 3811 3846 4047 4216 4428 4600 4556 4360 3880 3577 3635 3665 3699 3762 3805 3820 3847 3848 3811 3785 3771 3770 3800 3826 3858 3884 3921 3929
1 16 23 2 0 0 8 0 0 0 4 0 0 0 0 1 25 66 216 217 226 633 642 682 676 797 873 833 1038 1086 1326 1341 1409 1494 1796 1998 2113 2209 2317 2311 2433 2498 2783 2976 3002 3099 3157 3091 3106 3148 3198 2997 3103 3196 3192 3107 3128 3390 3713 3925 3996 4325 4473 4624 4688 4607 4453 4387 4056 3720 3660 3706 3752 3814 3828 3847 3848 3863 3910 3897 3914 3942 3966 3972 3990 3996
5 10 16 4 2 0 1 0 0 0 2 3 0 0 0 0 0 10 132 181 66 275 576 600 591 637 757 666 770 727 1086 1220 1375 1415 1642 1843 1957 1975 1972 2092 2070 2104 2069 2026 1859 1780 1664 1475 1324 1370 1373 1480 1895 2431 2784 2923 2998 3243 3489 3690 3934 4188 4460 4494 4674 4707 4688 4447 4242 4174 4056 3871 3850 3844 3752 3802 3838 3973 3987 4004 4034 4040 4067 4054 4047 4052
15 8 4 3 2 0 0 0 0 0 8 2 0 0 0 0 0 0 39 91 179 312 514 592 447 418 588 606 551 276 783 1157 1284 1363 1498 1589 1808 1754 1780 1708 1795 1660 1584 1446 1594 1632 1597 1498 1406 1343 1368 1375 1389 1416 1536 1732 2251 2844 3225 3384 3630 3878 4352 4453 4476 4680 4697 4673 4420 4209 4088 4064 4020 3956 3704 3751 3810 3878 3956 4050 4072 4110 4145 4125 4123 4128
1 1 4 2 0 0 0 0 0 2 12 0 0 0 0 0 1 0 0 90 103 259 377 439 202 220 233 512 586 538 432 854 1065 1129 1264 1328 1392 1391 1412 1388 1244 1109 1120 1307 1445 1598 1649 1596 1514 1418 1396 1352 1372 1440 1489 1657 1921 2087 2208 2536 3098 3492 3747 4190 4473 4527 4652 4666 4614 4497 4238 4040 3930 3933 3816 3810 3868 3895 3956 3998 4076 4159 4154 4223 4177 4195
5 3 5 7 2 0 0 0 0 2 2 0 0 0 0 0 10 2 0 0 19 165 295 386 234 24 167 312 506 540 339 706 926 883 967 968 913 869 857 815 749 604 537 991 1160 1388 1628 1704 1692 1536 1455 1412 1296 1232 1300 1402 1621 1895 2059 2243 2468 2791 3071 3416 4145 4314 4516 4556 4646 4534 4481 4300 4106 4070 4008 4002 4008 4000 4016 3990 4058 4174 4254 4259 4277 4320
Wind_Speed
nan nan nan nan nan nan nan nan nan nan nan nan nan nan nan nan nan nan nan nan nan nan nan nan nan nan nan 12 11 9 9 8 7 1 2 2 2 2 2 5 13 17 19 14 15 15 14 13 9 6 3 2 2 1 0 1 1 3 2 2 3 5 5 5 6 7 7 7 9 10 10 12 12 12 12 14 14 15 16 17 16 14 14 14 14 13
nan nan nan nan nan nan nan nan nan nan nan nan nan nan nan nan nan nan nan nan nan nan nan nan nan nan nan 14 14 15 11 5 3 4 4 1 2 1 4 7 12 17 10 10 13 14 13 12 11 8 4 3 4 1 0 2 1 3 3 3 4 6 4 4 5 6 7 8 8 8 10 11 12 12 12 14 14 15 16 15 15 14 14 14 14 12
nan nan nan nan nan nan nan nan nan nan nan nan nan nan nan nan nan nan nan nan nan nan nan nan nan nan nan nan 19 15 6 5 5 5 5 2 2 2 4 8 10 10 12 13 15 14 13 14 13 9 6 4 4 3 1 1 1 3 5 5 5 6 5 5 4 5 6 7 7 7 9 9 11 12 13 13 13 14 14 14 14 14 14 13 13 12
nan nan nan nan nan nan nan nan nan nan nan nan nan nan nan nan nan nan nan nan nan nan nan nan nan nan nan nan 21 12 7 10 9 7 8 5 3 5 7 8 9 11 13 16 16 16 15 14 12 10 8 5 3 2 2 1 1 3 5 5 5 6 6 5 4 4 4 4 5 6 7 7 8 10 10 11 12 13 13 14 13 13 13 12 12 11
nan nan nan nan nan nan nan nan nan nan nan nan nan nan nan nan nan nan nan nan nan nan nan nan nan nan nan nan nan 21 19 24 21 18 20 18 13 8 10 10 9 11 12 14 15 14 14 15 15 13 9 5 3 2 2 1 1 5 3 5 6 7 6 6 4 2 3 3 4 5 6 6 8 10 9 9 12 13 13 13 12 13 11 11 11 10
nan nan nan nan nan nan nan nan nan nan nan nan nan nan nan nan nan nan nan nan nan nan nan nan nan nan nan nan nan nan 24 23 24 21 15 15 13 14 7 5 6 11 12 13 16 18 17 14 11 11 10 8 4 2 0 2 2 5 6 7 8 9 8 7 5 2 2 3 4 5 6 7 10 12 11 11 11 11 11 13 12 11 9 9 9 9
nan nan nan nan nan nan nan nan nan nan nan nan nan nan nan nan nan nan nan nan nan nan nan nan nan nan nan nan nan nan 23 18 24 19 13 14 16 12 9 6 4 7 10 12 12 12 15 14 13 13 12 11 7 2 3 3 3 4 6 7 8 9 9 8 5 1 3 4 5 5 7 8 9 10 12 11 11 10 11 10 9 10 8 8 8 9
nan nan nan nan nan nan nan nan nan nan nan nan nan nan nan nan nan nan nan nan nan nan nan nan nan nan nan nan nan nan nan 19 21 17 15 16 15 11 10 7 4 5 8 10 12 14 15 15 15 16 15 12 9 3 3 3 4 4 5 6 8 11 10 8 6 3 3 3 4 4 6 7 8 7 8 8 9 10 9 8 8 8 9 8 9 9
nan nan nan nan nan nan nan nan nan nan nan nan nan nan nan nan nan nan nan nan nan nan nan nan nan nan nan nan nan nan nan nan 21 15 15 16 11 9 9 7 3 1 3 7 10 12 14 14 14 12 12 11 8 4 3 4 4 5 6 7 8 9 9 8 5 4 4 4 4 3 3 4 6 7 8 8 8 8 8 7 8 8 8 8 9 10
nan nan nan nan nan nan nan nan nan nan nan nan nan nan nan nan nan nan nan nan nan nan nan nan nan nan nan nan nan nan nan nan nan 16 17 16 10 8 7 6 3 5 5 5 9 10 9 9 9 11 10 9 8 4 3 6 6 6 7 7 7 7 9 8 5 5 4 3 4 2 1 3 4 6 7 7 6 7 6 7 7 7 7 8 8 9
nan nan nan nan nan nan nan nan nan nan nan nan nan nan nan nan nan nan nan nan nan nan nan nan nan nan nan nan nan nan nan nan nan nan nan nan 17 14 11 7 7 9 8 3 4 7 8 4 5 7 11 11 9 5 4 6 6 6 6 6 6 6 9 8 6 6 4 4 3 2 1 4 3 5 7 8 8 8 7 7 6 6 7 6 7 7
nan nan nan nan nan nan nan nan nan nan nan nan nan nan nan nan nan nan nan nan nan nan nan nan nan nan nan nan nan nan nan nan nan nan nan nan nan 12 10 8 6 7 9 8 8 7 5 3 3 7 11 11 11 8 6 5 6 6 5 6 6 7 7 9 8 7 6 5 3 2 0 3 3 4 6 7 8 9 8 8 7 7 6 7 6 6
nan nan nan nan nan nan nan nan nan nan nan nan nan nan nan nan nan nan nan nan nan nan nan nan nan nan nan nan nan nan nan nan nan nan nan nan nan nan 7 3 4 6 9 13 10 8 5 3 5 9 10 10 11 10 9 6 5 6 5 5 5 6 7 8 9 7 6 6 4 3 1 3 5 5 6 7 8 9 9 9 9 7 7 8 7 6
nan nan nan nan nan nan nan nan nan nan nan nan nan nan nan nan nan nan nan nan nan nan nan nan nan nan nan nan nan nan nan nan nan nan nan nan nan nan nan 5 1 4 9 12 12 9 5 2 4 5 7 8 8 11 10 8 5 6 7 5 5 5 8 9 10 9 8 6 5 4 3 4 5 6 7 8 7 7 8 8 7 6 7 6 5 4
nan nan nan nan nan nan nan nan nan nan nan nan nan nan nan nan nan nan nan nan nan nan nan nan nan nan nan nan nan nan nan nan nan nan nan nan nan nan nan nan 7 4 6 10 12 9 4 3 2 3 5 6 7 10 10 7 6 6 6 6 5 6 7 8 9 10 8 8 7 6 5 5 7 7 9 9 8 7 7 8 7 7 7 6 5 4
nan nan nan nan nan nan nan nan nan nan nan nan nan nan nan nan nan nan nan nan nan nan nan nan nan nan nan nan nan nan nan nan nan nan nan nan nan nan nan nan nan 8 5 7 9 7 4 6 4 2 2 4 6 9 9 9 7 6 5 6 6 6 8 9 10 11 10 10 10 8 6 5 7 9 10 10 10 9 8 8 7 7 7 6 5 5
nan nan nan nan nan nan nan nan nan nan nan nan nan nan nan nan nan nan nan nan nan nan nan nan nan nan nan nan nan nan nan nan nan nan nan nan nan nan nan nan nan nan 9 8 7 7 6 8 5 2 1 2 6 8 9 8 7 7 7 7 6 7 10 9 10 11 13 12 11 9 8 8 9 9 9 8 7 7 9 9 8 8 7 7 6 5
nan nan nan nan nan nan nan nan nan nan nan nan nan nan nan nan nan nan nan nan nan nan nan nan nan nan nan nan nan nan nan nan nan nan nan nan nan nan nan nan nan nan nan 8 5 6 8 8 5 4 2 3 6 8 7 6 5 5 7 7 7 7 7 10 12 12 14 13 12 12 10 9 10 10 10 11 10 11 11 10 9 10 9 6 6 7
nan nan nan nan nan nan nan nan nan nan nan nan nan nan nan nan nan nan nan nan nan nan nan nan nan nan nan nan nan nan nan nan nan nan nan nan nan nan nan nan nan nan nan nan 12 15 16 13 10 6 1 3 4 4 4 5 5 5 6 8 8 6 7 10 14 16 17 16 16 15 12 11 13 14 14 14 14 13 11 9 8 8 7 9 9 8
nan nan nan nan nan nan nan nan nan nan nan nan nan nan nan nan nan nan nan nan nan nan nan nan nan nan nan nan nan nan nan nan nan nan nan nan nan nan nan nan nan nan nan nan 12 15 14 11 7 3 0 2 4 3 4 6 4 5 6 8 8 9 10 12 14 16 16 16 16 16 16 15 15 16 16 15 14 13 11 10 9 8 9 7 10 8
nan nan nan nan nan nan nan nan nan nan nan nan nan nan nan nan nan nan nan nan nan nan nan nan nan nan nan nan nan nan nan nan nan nan nan nan nan nan nan nan nan nan nan nan 11 13 12 11 10 7 5 4 4 7 8 5 3 3 6 6 8 9 9 10 13 16 17 18 16 16 15 15 16 16 17 16 15 13 13 13 12 10 9 12 10 10
nan nan nan nan nan nan nan nan nan nan nan nan nan nan nan nan nan nan nan nan nan nan nan nan nan nan nan nan nan nan nan nan nan nan nan nan nan nan nan nan nan nan nan 10 8 9 11 12 12 12 12 12 9 7 4 3 4 4 4 6 8 10 9 9 12 15 17 18 17 15 16 16 17 17 18 16 16 15 14 14 13 11 12 9 10 10
nan nan nan nan nan nan nan nan nan nan nan nan nan nan nan nan nan nan nan nan nan nan nan nan nan nan nan nan nan nan nan nan nan nan nan nan nan nan nan nan nan nan nan nan 7 7 8 11 14 14 12 10 6 5 5 5 4 4 5 7 9 8 7 8 11 15 18 18 16 15 16 17 18 18 16 15 16 16 15 15 13 13 11 10 11 10
nan nan nan nan nan nan nan nan nan nan nan nan nan nan nan nan nan nan nan nan nan nan nan nan nan nan nan nan nan nan nan nan nan nan nan nan nan nan nan nan nan nan nan 10 10 11 12 15 20 21 18 15 14 13 7 4 5 6 6 7 9 7 7 10 12 15 16 16 15 15 16 17 18 17 17 17 17 15 15 15 15 13 11 11 12 10
nan nan nan nan nan nan nan nan nan nan nan nan nan nan nan nan nan nan nan nan nan nan nan nan nan nan nan nan nan nan nan nan nan nan nan nan nan nan nan nan nan nan nan nan 12 13 18 22 21 19 18 18 15 12 9 7 6 6 6 8 8 9 10 11 13 14 14 14 14 15 16 16 17 15 15 15 18 17 17 16 16 14 12 13 12 10
nan nan nan nan nan nan nan nan nan nan nan nan nan nan nan nan nan nan nan nan nan nan nan nan nan nan nan nan nan nan nan nan nan nan nan nan nan nan nan nan nan nan nan nan nan 18 19 18 17 17 18 20 18 14 11 8 7 8 9 9 11 12 13 12 13 13 14 15 15 14 14 15 15 14 14 14 16 16 16 17 14 14 15 14 12 11
nan nan nan nan nan nan nan nan nan nan nan nan nan nan nan nan nan nan nan nan nan nan nan nan nan nan nan nan nan nan nan nan nan nan nan nan nan nan nan nan nan nan nan nan nan 17 18 20 16 13 16 19 18 16 13 10 9 10 11 11 12 14 14 13 13 13 14 14 13 15 13 13 13 14 14 14 14 16 17 16 15 15 14 15 14 13
nan nan nan nan nan nan nan nan nan nan nan nan nan nan nan nan nan nan nan nan nan nan nan nan nan nan nan nan nan nan nan nan nan nan nan nan nan nan nan nan nan nan nan nan nan 21 18 15 13 13 16 20 19 18 15 12 11 11 12 12 14 16 16 16 14 13 13 14 14 14 13 13 13 14 14 16 16 17 16 15 15 14 14 15 13 13
nan nan nan nan nan nan nan nan nan nan nan nan nan nan nan nan nan nan nan nan nan nan nan nan nan nan nan nan nan nan nan nan nan nan nan nan nan nan nan nan nan nan nan nan nan 21 18 16 15 13 18 21 21 19 15 14 15 15 14 15 16 16 14 14 13 12 11 12 11 11 13 15 16 18 18 19 19 18 17 16 15 15 15 14 13 14
nan nan nan nan nan nan nan nan nan nan nan nan nan nan nan nan nan nan nan nan nan nan nan nan nan nan nan nan nan nan nan nan nan nan nan nan nan nan nan nan nan nan nan nan nan 21 19 16 15 15 20 24 21 18 16 16 16 14 13 14 14 14 15 16 13 12 11 10 10 13 16 17 19 19 20 20 18 18 17 17 17 16 15 13 13 14
nan nan nan nan nan nan nan nan nan nan nan nan nan nan nan nan nan nan nan nan nan nan nan nan nan nan nan nan nan nan nan nan nan nan nan nan nan nan nan nan nan nan nan nan nan 22 20 20 19 21 25 24 19 17 15 15 15 14 13 14 14 14 15 15 14 13 11 10 13 16 17 18 18 19 18 17 18 18 17 17 18 17 15 14 15 15
nan nan nan nan nan nan nan nan nan nan nan nan nan nan nan nan nan nan nan nan nan nan nan nan nan nan nan nan nan 40 43 44 42 40 37 32 nan nan nan nan nan nan nan nan nan 23 23 24 24 24 25 22 18 17 16 18 18 17 12 12 12 13 16 15 15 13 13 14 16 16 16 16 17 17 17 17 17 17 17 18 17 15 14 15 15 15
nan nan nan nan nan nan nan nan nan nan nan nan nan nan nan nan nan nan nan nan nan nan nan nan nan nan 42 nan nan 44 43 44 43 41 37 34 29 nan nan nan nan nan nan nan 21 23 24 24 24 25 25 22 19 17 15 17 18 13 10 9 11 16 15 14 14 15 16 16 16 15 15 16 16 16 16 16 16 18 18 17 15 14 15 14 16 16
nan nan nan nan nan nan nan nan nan nan nan nan nan nan nan nan nan nan nan nan nan nan nan nan nan 42 45 46 42 42 44 43 40 38 34 34 32 nan nan nan nan nan nan nan 19 21 23 26 28 30 27 21 16 14 16 18 15 14 14 14 16 14 15 15 16 17 16 17 16 16 16 16 16 15 15 17 17 18 17 15 13 14 15 16 16 14
nan nan nan nan nan nan nan nan nan nan nan nan nan nan nan nan nan nan nan nan nan nan nan 54 50 49 48 46 42 41 39 38 42 45 46 45 40 32 nan nan nan nan nan nan 20 20 23 25 28 31 29 24 23 25 25 25 28 28 22 17 14 14 14 15 16 16 16 15 16 17 16 15 14 13 14 15 15 16 14 13 14 13 14 15 14 13
nan nan nan nan nan nan nan nan nan nan nan nan nan nan nan nan nan nan nan nan nan nan nan 55 52 50 50 48 45 41 41 42 42 48 52 50 46 42 35 nan nan nan nan nan nan 19 22 25 27 26 26 30 29 26 25 26 27 24 21 19 17 16 14 15 15 14 15 15 16 16 15 13 12 11 11 12 12 12 11 10 10 10 12 12 12 12
nan nan nan nan nan nan nan nan nan nan nan nan nan nan nan nan nan nan nan nan nan nan nan 58 55 55 56 52 48 45 44 43 48 51 54 53 49 46 42 36 26 nan nan nan 20 23 28 30 31 34 36 32 29 28 27 29 28 27 26 23 20 17 17 15 13 12 12 12 12 11 9 8 6 6 6 7 7 6 5 5 5 7 10 9 9 10
nan nan nan nan nan nan nan nan nan nan nan nan nan nan nan nan nan nan nan 58 67 70 65 61 58 57 58 56 53 50 46 49 53 50 52 53 49 46 45 42 36 29 22 21 25 29 32 33 33 36 36 34 32 33 34 31 30 29 26 24 22 19 18 15 12 12 11 9 8 7 6 5 4 3 3 3 2 2 2 2 4 5 8 8 8 9
nan nan nan nan nan nan nan nan nan nan nan nan nan nan nan nan nan nan nan 59 64 66 65 63 60 60 59 57 56 52 49 49 49 51 51 52 49 47 46 45 39 32 28 23 22 26 29 30 31 34 35 34 34 35 34 33 32 31 29 26 23 20 18 15 14 14 12 10 10 9 8 7 5 4 4 3 2 2 1 2 4 5 7 8 8 8
nan nan nan nan nan nan nan nan nan nan 58 nan nan nan nan nan nan nan 57 60 68 66 64 63 63 63 61 60 57 60 56 53 53 52 52 52 49 49 48 45 40 35 31 28 30 30 31 34 36 34 32 29 30 33 33 33 32 30 29 27 25 21 18 16 16 16 16 15 15 13 12 11 8 7 7 5 5 5 4 5 7 8 9 8 9 9
nan nan nan nan nan nan nan nan nan nan nan nan nan nan nan nan nan 59 nan 63 65 63 63 62 63 65 64 64 61 58 59 57 54 53 55 56 56 54 50 44 39 36 33 31 31 34 37 38 36 33 32 32 33 34 35 35 34 32 32 30 26 21 20 21 22 21 19 19 18 16 15 14 12 10 9 9 9 9 9 11 9 9 10 10 10 10
nan nan nan nan nan nan nan nan nan nan nan nan nan nan nan nan nan 59 nan 64 64 64 62 63 65 67 67 67 62 60 57 59 61 60 60 59 55 53 49 46 42 39 37 35 36 37 39 41 41 40 39 36 34 36 37 37 37 38 37 32 26 26 28 27 25 25 24 22 20 18 17 16 16 14 14 14 15 15 14 14 13 14 13 13 12 11
nan nan nan nan nan nan nan nan nan nan nan nan nan nan nan 56 nan nan 61 64 65 62 63 64 66 68 70 68 66 62 63 66 65 62 60 59 57 53 50 47 42 40 38 38 39 41 41 44 45 44 42 40 39 39 40 42 42 41 39 35 32 33 33 34 35 32 28 26 24 23 21 20 18 18 18 17 16 15 15 17 17 17 17 16 15 14
nan nan nan nan nan nan nan nan nan nan nan nan nan nan nan nan nan nan 65 67 66 64 65 64 66 68 71 70 69 66 66 66 66 64 64 62 59 56 52 48 45 43 41 39 38 40 43 47 47 46 45 45 45 44 43 44 43 42 42 39 35 37 38 38 37 35 32 29 27 27 26 25 23 22 22 20 19 17 17 20 20 20 20 19 19 18
nan nan nan nan nan nan nan nan nan nan nan nan nan nan nan nan 60 65 68 68 69 67 67 65 69 71 71 72 70 68 66 65 63 63 62 58 55 55 53 49 46 44 43 42 42 41 43 46 48 48 48 48 49 49 49 47 47 47 45 38 38 39 38 38 38 36 34 34 32 31 30 29 28 26 24 22 21 20 21 22 23 22 22 23 22 21
nan nan nan nan nan nan nan nan nan nan nan nan nan nan nan nan nan 67 72 74 73 68 68 68 70 70 72 73 73 71 69 65 65 66 64 60 57 54 51 49 49 46 45 45 45 43 42 43 44 45 46 48 48 49 49 49 49 49 43 40 40 39 39 39 38 37 36 34 35 34 35 32 30 27 24 22 23 23 25 25 25 25 25 25 23 23
nan nan nan nan nan nan nan nan nan nan nan nan nan nan nan nan nan nan 70 73 74 73 72 73 70 68 70 71 73 72 70 68 64 63 62 60 60 59 55 51 47 47 45 45 44 42 42 43 43 42 41 43 43 43 45 46 47 45 42 43 42 42 43 43 41 41 41 38 37 37 36 33 31 30 27 27 28 29 29 29 29 29 29 29 28 27
nan nan nan nan nan nan nan nan nan nan nan nan nan nan nan nan nan nan 67 72 nan 74 74 74 73 71 70 73 74 71 71 70 68 65 60 57 56 56 56 54 51 49 48 46 45 43 43 43 43 42 40 39 38 39 40 42 44 44 44 45 46 46 47 48 47 45 44 42 41 40 38 35 32 33 33 33 34 34 34 35 34 34 33 33 33 32
nan nan nan nan nan nan nan nan nan nan nan nan nan nan nan nan nan nan nan nan 74 75 76 76 75 72 71 70 73 72 70 70 69 67 62 57 55 55 55 54 53 51 49 50 47 44 44 43 44 42 40 38 36 36 37 39 41 43 46 46 48 49 51 51 52 51 49 48 47 45 43 41 39 39 42 47 49 49 48 44 41 39 38 38 37 36
nan nan nan nan nan nan nan nan nan nan nan nan nan nan nan nan nan nan nan nan 73 72 73 75 75 74 71 69 71 72 71 66 66 66 65 60 57 56 55 55 54 54 53 51 47 47 46 47 45 43 41 39 37 36 36 36 36 37 38 41 45 48 50 50 51 52 51 50 49 49 49 50 49 50 50 50 51 51 52 54 53 51 46 46 48 48
nan nan nan nan nan nan nan nan nan nan nan nan nan nan nan nan nan nan nan nan nan 69 70 73 74 nan 71 72 70 72 73 69 64 62 63 62 59 58 56 56 55 54 53 51 50 50 48 48 47 45 43 41 39 38 37 36 35 34 34 36 38 42 44 46 49 50 51 50 50 49 51 52 53 52 53 52 52 52 53 52 58 64 62 56 54 54
Wind_Direction
nan nan nan nan nan nan nan nan nan nan nan nan nan nan nan nan nan nan nan nan nan nan nan nan nan nan nan 226 225 225 214 193 198 301 354 253 289 7 32 56 63 54 42 30 26 23 26 31 36 40 35 14 340 180 275 304 137 123 122 179 137 159 175 163 151 140 134 127 134 133 119 111 113 114 115 114 115 116 114 111 110 107 103 98 93 90
nan nan nan nan nan nan nan nan nan nan nan nan nan nan nan nan nan nan nan nan nan nan nan nan nan nan nan 213 220 219 220 189 118 46 37 18 1 12 16 41 62 61 58 32 29 26 25 33 34 35 47 26 355 24 23 358 328 140 132 131 149 170 166 154 147 147 141 139 135 129 120 124 123 122 117 114 118 117 119 114 111 108 102 94 88 86
nan nan nan nan nan nan nan nan nan nan nan nan nan nan nan nan nan nan nan nan nan nan nan nan nan nan nan nan 216 227 221 152 109 60 54 45 51 89 63 54 67 75 55 37 30 23 24 26 31 37 44 48 18 334 352 88 222 156 140 143 165 160 164 163 162 166 145 148 143 127 134 120 129 128 123 123 126 125 120 117 111 105 99 90 87 82
nan nan nan nan nan nan nan nan nan nan nan nan nan nan nan nan nan nan nan nan nan nan nan nan nan nan nan nan 209 210 204 169 147 136 147 155 63 67 66 59 71 74 59 40 28 21 18 21 29 37 42 41 21 331 313 297 20 166 156 155 156 164 167 175 180 167 155 138 136 130 148 134 124 125 131 131 137 126 123 113 108 104 96 89 85 78
nan nan nan nan nan nan nan nan nan nan nan nan nan nan nan nan nan nan nan nan nan nan nan nan nan nan nan nan nan 190 185 185 183 184 181 168 152 155 177 165 126 86 68 51 35 22 17 19 24 27 33 31 36 16 349 325 187 182 164 159 164 178 172 181 194 195 189 145 134 138 147 139 135 147 133 132 129 125 121 120 112 98 96 90 84 79
nan nan nan nan nan nan nan nan nan nan nan nan nan nan nan nan nan nan nan nan nan nan nan nan nan nan nan nan nan nan 206 190 198 206 188 164 170 197 181 114 126 114 105 70 39 22 17 15 12 20 22 24 36 54 77 248 224 197 186 178 177 183 183 187 197 207 188 119 117 128 120 119 123 125 138 125 119 128 120 107 112 113 100 89 85 80
nan nan nan nan nan nan nan nan nan nan nan nan nan nan nan nan nan nan nan nan nan nan nan nan nan nan nan nan nan nan 216 195 206 209 191 179 189 185 144 144 131 106 106 97 77 39 17 10 7 12 16 17 17 25 214 219 231 226 204 186 182 184 187 195 199 186 153 144 144 128 123 128 130 133 139 136 132 123 120 129 119 111 110 94 81 81
nan nan nan nan nan nan nan nan nan nan nan nan nan nan nan nan nan nan nan nan nan nan nan nan nan nan nan nan nan nan nan 207 210 201 196 199 195 167 143 146 144 119 109 99 74 51 29 10 5 8 11 11 14 327 247 223 231 256 235 209 190 186 191 195 195 163 146 154 162 161 147 148 145 136 127 127 129 136 140 125 119 117 110 100 88 78
nan nan nan nan nan nan nan nan nan nan nan nan nan nan nan nan nan nan nan nan nan nan nan nan nan nan nan nan nan nan nan nan 205 196 200 205 191 160 145 141 141 86 107 112 98 68 38 14 4 1 10 13 357 325 251 219 218 234 234 226 206 190 192 195 189 169 150 171 190 191 172 145 140 133 140 163 157 147 140 126 129 119 113 103 90 80
nan nan nan nan nan nan nan nan nan nan nan nan nan nan nan nan nan nan nan nan nan nan nan nan nan nan nan nan nan nan nan nan nan 190 197 200 181 170 162 141 163 242 229 159 111 99 69 27 3 2 5 358 358 341 249 221 215 223 229 233 226 198 194 194 185 175 164 186 211 205 164 70 119 144 157 165 145 140 136 118 122 131 126 112 103 93
nan nan nan nan nan nan nan nan nan nan nan nan nan nan nan nan nan nan nan nan nan nan nan nan nan nan nan nan nan nan nan nan nan nan nan nan 183 179 172 170 210 243 265 239 147 119 99 62 2 352 360 2 348 331 281 233 215 219 229 236 236 211 198 194 185 187 178 198 214 208 61 65 109 162 167 163 150 153 146 129 132 129 120 120 107 106
nan nan nan nan nan nan nan nan nan nan nan nan nan nan nan nan nan nan nan nan nan nan nan nan nan nan nan nan nan nan nan nan nan nan nan nan nan 183 180 185 210 242 260 254 220 180 157 153 55 13 7 358 350 338 320 261 228 219 220 234 242 221 203 192 187 190 191 201 205 212 130 89 136 188 173 154 152 152 146 147 148 152 154 139 137 122
nan nan nan nan nan nan nan nan nan nan nan nan nan nan nan nan nan nan nan nan nan nan nan nan nan nan nan nan nan nan nan nan nan nan nan nan nan nan 159 160 223 245 253 256 251 227 204 111 57 25 11 1 356 352 340 312 261 233 224 240 251 235 218 197 192 188 195 205 206 219 201 126 171 189 185 174 168 170 165 168 170 167 148 167 161 138
nan nan nan nan nan nan nan nan nan nan nan nan nan nan nan nan nan nan nan nan nan nan nan nan nan nan nan nan nan nan nan nan nan nan nan nan nan nan nan 120 188 250 253 256 257 256 246 129 84 30 19 19 2 358 347 325 287 247 233 240 248 238 226 206 194 189 190 195 210 221 206 171 183 190 197 190 179 180 175 177 168 159 157 157 136 129
nan nan nan nan nan nan nan nan nan nan nan nan nan nan nan nan nan nan nan nan nan nan nan nan nan nan nan nan nan nan nan nan nan nan nan nan nan nan nan nan 146 177 232 244 249 261 258 145 87 29 34 31 6 358 349 330 304 264 249 254 259 240 230 215 199 193 187 192 206 215 206 188 188 197 200 192 188 187 180 177 176 166 169 160 142 110
nan nan nan nan nan nan nan nan nan nan nan nan nan nan nan nan nan nan nan nan nan nan nan nan nan nan nan nan nan nan nan nan nan nan nan nan nan nan nan nan nan 170 182 220 232 238 208 175 173 173 93 36 4 359 354 344 317 288 265 265 268 257 237 217 202 192 189 192 202 208 209 192 193 200 201 198 194 184 183 184 179 175 173 162 160 153
nan nan nan nan nan nan nan nan nan nan nan nan nan nan nan nan nan nan nan nan nan nan nan nan nan nan nan nan nan nan nan nan nan nan nan nan nan nan nan nan nan nan 197 200 215 217 191 179 175 137 59 9 359 1 5 353 330 308 270 257 259 248 236 226 207 195 192 194 199 198 198 195 196 201 202 200 195 189 193 194 185 184 177 178 181 185
nan nan nan nan nan nan nan nan nan nan nan nan nan nan nan nan nan nan nan nan nan nan nan nan nan nan nan nan nan nan nan nan nan nan nan nan nan nan nan nan nan nan nan 199 179 186 187 172 159 169 181 359 2 5 359 346 319 289 271 263 261 247 245 230 218 204 196 197 196 197 194 190 195 198 195 194 194 199 206 201 196 196 197 179 189 205
nan nan nan nan nan nan nan nan nan nan nan nan nan nan nan nan nan nan nan nan nan nan nan nan nan nan nan nan nan nan nan nan nan nan nan nan nan nan nan nan nan nan nan nan 185 187 189 180 177 177 108 19 9 349 331 310 295 271 260 257 260 260 242 234 220 209 201 198 197 198 195 193 194 196 195 192 195 202 204 207 208 205 198 204 212 220
nan nan nan nan nan nan nan nan nan nan nan nan nan nan nan nan nan nan nan nan nan nan nan nan nan nan nan nan nan nan nan nan nan nan nan nan nan nan nan nan nan nan nan nan 193 188 184 174 164 160 194 25 22 331 282 293 291 318 286 265 252 242 232 230 225 218 210 201 199 200 198 193 195 199 199 194 196 197 197 206 214 212 217 216 226 230
nan nan nan nan nan nan nan nan nan nan nan nan nan nan nan nan nan nan nan nan nan nan nan nan nan nan nan nan nan nan nan nan nan nan nan nan nan nan nan nan nan nan nan nan 198 190 188 179 173 182 191 167 191 220 233 252 316 308 266 265 260 255 246 237 232 227 216 210 202 203 201 197 198 200 200 195 193 193 197 206 210 213 216 226 229 239
nan nan nan nan nan nan nan nan nan nan nan nan nan nan nan nan nan nan nan nan nan nan nan nan nan nan nan nan nan nan nan nan nan nan nan nan nan nan nan nan nan nan nan 232 215 203 200 196 196 202 205 205 212 228 252 265 264 270 269 255 249 243 237 240 233 228 226 217 208 204 201 199 200 202 202 197 194 194 201 206 210 214 223 230 232 241
nan nan nan nan nan nan nan nan nan nan nan nan nan nan nan nan nan nan nan nan nan nan nan nan nan nan nan nan nan nan nan nan nan nan nan nan nan nan nan nan nan nan nan nan 230 214 216 221 225 229 233 234 248 252 260 252 264 270 268 252 237 239 238 237 233 230 228 223 215 207 202 203 203 205 203 198 196 198 204 209 212 219 223 225 230 235
nan nan nan nan nan nan nan nan nan nan nan nan nan nan nan nan nan nan nan nan nan nan nan nan nan nan nan nan nan nan nan nan nan nan nan nan nan nan nan nan nan nan nan 212 215 206 212 225 233 235 236 234 228 227 238 246 251 254 258 251 237 235 235 229 226 228 229 225 217 213 208 206 207 208 205 200 197 198 204 211 214 217 218 223 226 233
nan nan nan nan nan nan nan nan nan nan nan nan nan nan nan nan nan nan nan nan nan nan nan nan nan nan nan nan nan nan nan nan nan nan nan nan nan nan nan nan nan nan nan nan 229 224 222 226 236 245 253 252 246 239 233 236 247 261 263 245 233 225 228 223 224 227 227 226 223 217 210 208 211 211 208 203 202 202 207 213 215 214 216 222 223 228
nan nan nan nan nan nan nan nan nan nan nan nan nan nan nan nan nan nan nan nan nan nan nan nan nan nan nan nan nan nan nan nan nan nan nan nan nan nan nan nan nan nan nan nan nan 234 233 234 239 244 251 249 245 239 233 231 241 252 252 248 232 225 222 218 220 222 222 222 221 216 214 212 213 212 211 210 206 207 211 214 214 213 214 220 219 223
nan nan nan nan nan nan nan nan nan nan nan nan nan nan nan nan nan nan nan nan nan nan nan nan nan nan nan nan nan nan nan nan nan nan nan nan nan nan nan nan nan nan nan nan nan 241 234 229 238 246 249 247 245 240 231 227 239 247 250 249 235 224 222 219 220 220 220 219 217 215 213 214 214 213 214 214 210 211 214 215 215 215 215 219 217 218
nan nan nan nan nan nan nan nan nan nan nan nan nan nan nan nan nan nan nan nan nan nan nan nan nan nan nan nan nan nan nan nan nan nan nan nan nan nan nan nan nan nan nan nan nan 238 237 235 240 239 240 240 238 236 225 217 226 242 253 253 236 225 221 213 216 218 221 221 216 213 213 211 212 212 213 214 213 214 216 216 216 216 217 220 217 216
nan nan nan nan nan nan nan nan nan nan nan nan nan nan nan nan nan nan nan nan nan nan nan nan nan nan nan nan nan nan nan nan nan nan nan nan nan nan nan nan nan nan nan nan nan 233 232 229 229 232 236 238 241 240 232 220 222 227 233 238 230 224 221 219 217 220 224 225 221 215 215 212 209 208 211 213 212 213 215 216 218 220 221 220 217 217
nan nan nan nan nan nan nan nan nan nan nan nan nan nan nan nan nan nan nan nan nan nan nan nan nan nan nan nan nan nan nan nan nan nan nan nan nan nan nan nan nan nan nan nan nan 229 226 227 227 230 239 240 245 246 234 222 227 234 245 246 235 223 220 221 218 220 221 220 214 214 217 215 213 212 214 214 213 213 215 216 219 223 222 221 220 220
nan nan nan nan nan nan nan nan nan nan nan nan nan nan nan nan nan nan nan nan nan nan nan nan nan nan nan nan nan nan nan nan nan nan nan nan nan nan nan nan nan nan nan nan nan 226 226 225 220 226 236 239 246 253 238 226 232 233 237 238 233 224 222 223 221 221 222 218 215 216 217 216 215 217 217 216 214 215 218 220 223 224 224 224 225 226
nan nan nan nan nan nan nan nan nan nan nan nan nan nan nan nan nan nan nan nan nan nan nan nan nan nan nan nan nan 186 194 198 195 192 189 184 nan nan nan nan nan nan nan nan nan 224 226 226 222 230 240 242 248 249 230 220 226 229 230 236 234 227 226 225 225 225 223 224 224 222 223 220 221 219 217 218 216 219 223 225 228 228 228 228 230 230
nan nan nan nan nan nan nan nan nan nan nan nan nan nan nan nan nan nan nan nan nan nan nan nan nan nan 175 nan nan 188 197 198 196 193 187 179 174 nan nan nan nan nan nan nan 232 230 231 230 229 236 242 241 244 242 227 227 231 227 225 234 230 227 226 226 228 227 227 229 231 231 229 228 228 225 221 220 219 222 226 230 232 232 230 230 232 235
nan nan nan nan nan nan nan nan nan nan nan nan nan nan nan nan nan nan nan nan nan nan nan nan nan 179 179 182 188 193 199 195 193 190 188 183 175 nan nan nan nan nan nan nan 236 239 236 230 228 233 238 240 242 237 222 224 224 211 208 215 220 224 220 222 222 224 226 228 229 231 232 232 232 231 227 226 225 226 229 231 232 231 229 230 234 239
nan nan nan nan nan nan nan nan nan nan nan nan nan nan nan nan nan nan nan nan nan nan nan 200 193 185 181 186 190 194 195 192 192 192 190 187 186 181 nan nan nan nan nan nan 213 224 229 231 233 231 227 221 219 213 212 210 211 209 206 208 213 214 217 218 221 221 223 225 226 228 229 232 233 233 233 233 233 232 232 233 228 229 230 233 240 245
nan nan nan nan nan nan nan nan nan nan nan nan nan nan nan nan nan nan nan nan nan nan nan 198 191 185 184 184 184 186 189 187 186 192 189 189 190 190 187 nan nan nan nan nan nan 218 223 226 229 231 223 217 216 212 210 213 214 211 203 203 209 209 209 213 215 217 219 220 224 228 230 233 233 233 234 237 237 238 239 238 240 242 243 242 244 246
nan nan nan nan nan nan nan nan nan nan nan nan nan nan nan nan nan nan nan nan nan nan nan 196 188 187 187 187 182 179 180 182 189 190 187 189 192 192 193 192 194 nan nan nan 212 208 213 220 221 219 218 216 214 213 211 214 214 209 207 207 205 206 204 205 203 205 211 214 222 225 227 228 229 226 231 238 243 244 246 249 251 251 251 256 256 256
nan nan nan nan nan nan nan nan nan nan nan nan nan nan nan nan nan nan nan 206 208 202 199 195 189 187 187 188 186 181 184 192 192 187 187 187 191 195 197 198 199 200 210 224 217 218 219 221 221 219 220 216 212 211 210 214 214 213 211 209 206 205 201 196 188 193 198 198 204 199 194 187 181 184 199 219 233 237 233 247 244 257 261 267 266 260
nan nan nan nan nan nan nan nan nan nan nan nan nan nan nan nan nan nan nan 210 209 201 196 193 188 187 188 189 188 190 194 197 194 190 189 188 190 197 200 201 202 205 207 212 230 228 225 226 227 224 222 218 215 212 214 216 218 215 213 210 206 202 198 188 186 193 193 192 195 192 192 191 190 190 200 203 193 212 230 254 259 260 265 261 260 258
nan nan nan nan nan nan nan nan nan nan 196 nan nan nan nan nan nan nan 209 213 205 196 194 191 188 186 186 190 195 200 199 203 198 195 192 192 193 199 202 203 204 208 211 215 213 218 222 223 225 225 226 223 218 218 220 220 220 219 217 213 207 201 193 188 190 195 195 200 203 202 203 204 205 207 214 215 212 216 219 232 237 247 260 263 259 261
nan nan nan nan nan nan nan nan nan nan nan nan nan nan nan nan nan 213 nan 207 201 195 194 192 190 188 189 195 196 202 199 202 202 200 200 200 201 202 204 205 208 212 216 217 217 212 216 216 221 224 223 218 219 217 217 219 221 220 219 217 209 198 193 195 200 202 202 206 209 209 211 210 213 218 218 222 227 230 231 235 243 252 263 265 269 274
nan nan nan nan nan nan nan nan nan nan nan nan nan nan nan nan nan 215 nan 208 203 196 193 193 192 191 191 198 196 198 199 202 205 204 204 204 205 206 205 206 208 214 218 220 218 214 214 215 217 218 216 213 216 217 216 219 221 221 223 221 213 203 201 204 205 206 208 211 211 213 218 221 220 221 221 224 227 230 232 237 244 247 257 259 266 281
nan nan nan nan nan nan nan nan nan nan nan nan nan nan nan 216 nan nan 206 207 206 198 195 194 196 194 194 196 196 196 200 206 205 206 207 208 208 207 207 206 207 210 213 215 214 208 210 214 213 213 213 210 213 214 217 223 224 224 225 224 216 210 209 211 213 213 214 214 214 215 221 224 227 226 226 229 234 237 238 242 246 248 252 257 261 270
nan nan nan nan nan nan nan nan nan nan nan nan nan nan nan nan nan nan 208 205 204 201 198 198 198 198 197 197 196 197 201 204 205 205 208 208 207 207 208 208 210 211 210 212 212 208 207 213 212 212 209 209 210 213 218 225 225 226 227 224 216 215 214 215 217 217 218 217 217 220 222 226 228 226 225 230 235 239 242 243 246 249 252 256 258 260
nan nan nan nan nan nan nan nan nan nan nan nan nan nan nan nan 210 205 205 205 203 200 199 201 199 198 199 199 199 200 202 202 204 206 209 207 207 208 208 207 209 209 208 209 210 207 208 210 212 213 213 211 212 212 214 219 226 226 227 221 221 224 224 222 224 225 223 218 219 222 223 226 230 229 225 226 235 241 243 246 249 251 252 255 257 258
nan nan nan nan nan nan nan nan nan nan nan nan nan nan nan nan nan 204 203 201 201 199 200 201 200 198 198 199 201 201 203 201 203 204 206 206 205 204 204 203 203 204 204 206 207 208 208 208 209 212 214 213 213 216 217 218 223 228 226 225 227 228 231 234 234 235 236 233 229 227 226 228 232 232 229 234 240 245 248 253 255 256 256 258 259 260
nan nan nan nan nan nan nan nan nan nan nan nan nan nan nan nan nan nan 201 200 199 198 197 201 201 199 198 200 202 201 201 201 202 204 205 204 202 201 201 199 198 201 202 201 202 207 210 210 208 206 207 210 209 215 219 222 223 226 227 227 228 229 232 234 234 235 238 241 240 238 236 237 237 235 231 235 240 243 247 250 254 257 258 260 259 259
nan nan nan nan nan nan nan nan nan nan nan nan nan nan nan nan nan nan 199 200 nan 198 197 198 201 199 200 202 204 203 200 202 201 200 202 205 201 199 199 198 196 195 197 199 200 205 210 212 211 208 207 207 206 211 216 220 223 225 226 225 226 228 230 231 232 233 234 237 239 239 240 239 242 241 236 237 240 243 245 248 251 254 258 259 258 259
nan nan nan nan nan nan nan nan nan nan nan nan nan nan nan nan nan nan nan nan 200 198 196 196 201 201 200 203 204 206 203 200 202 199 197 200 203 201 199 196 195 194 195 198 198 204 209 208 209 209 210 209 207 212 216 218 219 221 224 225 226 228 229 228 228 230 232 233 235 236 236 237 237 237 237 236 235 234 234 236 239 248 251 252 254 258
nan nan nan nan nan nan nan nan nan nan nan nan nan nan nan nan nan nan nan nan 200 199 198 196 198 200 200 203 206 205 205 202 201 201 197 196 197 200 201 200 197 195 195 198 200 203 205 205 205 206 208 207 208 212 214 217 217 218 221 224 226 229 230 230 230 230 230 232 234 235 237 237 236 237 237 239 239 239 236 237 241 238 241 247 240 241
nan nan nan nan nan nan nan nan nan nan nan nan nan nan nan nan nan nan nan nan nan 200 199 198 199 nan 201 199 204 207 205 202 200 201 200 198 196 196 201 204 201 197 198 199 200 201 203 203 203 205 207 206 207 212 214 216 215 217 218 222 226 229 232 233 232 231 231 232 234 237 238 239 240 240 240 242 243 242 243 243 238 237 239 241 243 245